This demonstration page uses our WeatherBlox Daily Observations layout. Learn more.

Left ArrowRight Arrow

39.29038, -76.61219

Hourly Observations for October 9, 2020

Temp ( °F °C ) Dew Point ( °F °C ) Humidity (%) Winds ( mph kmh ) Pressure ( in mb ) Visibility ( mi km ) Precip ( " mm )
12:54 am 00:54 Clear 51 10.6 43 6.1 74 74 WSW 3 6 30.19 1022 10 16 0.00 0.00
1:54 am 01:54 Mostly Clear 50 10 43 6.1 77 77 WSW 3 6 30.19 1023 10 16 0.00 0.00
2:54 am 02:54 Mostly Clear 50 10 42 5.6 74 74 WSW 3 6 30.20 1023 10 16 0.00 0.00
3:54 am 03:54 Mostly Clear 47 8.3 42 5.6 83 83 W 3 6 30.19 1022 10 16 0.00 0.00
4:54 am 04:54 Clear 45 7.2 42 5.6 90 90 W 3 6 30.19 1022 10 16 0.00 0.00
5:54 am 05:54 Clear 46 7.8 42 5.6 86 86 WNW 3 6 30.20 1023 10 16 0.00 0.00
6:54 am 06:54 Mostly Clear 46 7.8 42 5.6 86 86 Calm 30.22 1023 10 16 0.00 0.00
7:54 am 07:54 Partly Cloudy 47 8.3 43 6.1 86 86 SW 5 7 30.24 1024 10 16 0.00 0.00
8:54 am 08:54 Partly Cloudy 55 12.8 45 7.2 69 69 WSW 8 13 30.25 1025 10 16 0.00 0.00
9:54 am 09:54 Partly Cloudy 62 16.7 46 7.8 56 56 W 6 9 30.25 1025 10 16 0.00 0.00
10:54 am 10:54 Partly Cloudy 67 19.4 45 7.2 45 45 WSW 5 7 30.25 1024 10 16 0.00 0.00
11:54 am 11:54 Partly Cloudy 70 21.1 44 6.7 39 39 W 9 15 30.24 1024 10 16 0.00 0.00
12:54 pm 12:54 Partly Cloudy 70 21.1 41 5 35 35 SSW 10 17 30.24 1024 10 16 0.00 0.00
1:54 pm 13:54 Mostly Cloudy 72 22.2 42 5.6 34 34 SW 7 11 30.20 1023 10 16 0.00 0.00
2:54 pm 14:54 Mostly Cloudy 71 21.7 42 5.6 35 35 SW 10 17 30.18 1022 10 16 0.00 0.00
3:54 pm 15:54 Mostly Cloudy 70 21.1 42 5.6 37 37 SSW 10 17 30.17 1022 10 16 0.00 0.00
4:54 pm 16:54 Mostly Cloudy 70 21.1 44 6.7 39 39 SW 9 15 30.17 1022 10 16 0.00 0.00
5:54 pm 17:54 Mostly Cloudy 69 20.6 45 7.2 42 42 SSW 6 9 30.16 1021 10 16 0.00 0.00
6:54 pm 18:54 Mostly Cloudy 65 18.3 47 8.3 52 52 S 3 6 30.16 1021 10 16 0.00 0.00
7:54 pm 19:54 Mostly Cloudy 62 16.7 47 8.3 58 58 Calm 30.16 1021 10 16 0.00 0.00
8:54 pm 20:54 Mostly Cloudy 60 15.6 48 8.9 65 65 SSW 3 6 30.16 1021 10 16 0.00 0.00
9:54 pm 21:54 Mostly Cloudy 57 13.9 48 8.9 72 72 SSW 3 6 30.16 1021 10 16 0.00 0.00
10:54 pm 22:54 Mostly Cloudy 57 13.9 49 9.4 74 74 SSW 3 6 30.14 1021 10 16 0.00 0.00
11:54 pm 23:54 Cloudy 55 12.8 49 9.4 80 80 Calm 30.14 1021 10 16 0.00 0.00

Powered by AerisWeather